Simultaneous Nadir Overpasses (SNOs) Predictions

Prediction of SNOs between METOP-C and LANDSAT-8 Satellite Orbit:

Table of predicted SNOs for the next 14.0 days since TLE Epoch: 4/13/2024
Index Date (METOP-C) Time (METOP-C) Lat,Lon (METOP-C) SZA (METOP-C ) Date (LANDSAT-8) Time (LANDSAT-8) Lat,Lon (LANDSAT-8) SZA (LANDSAT-8 ) Distance(km) Time Diff (sec)
1 04/13/2024 07:06:07 -81.06, -68.11 106.26 04/13/2024 07:06:19 -81.06, -68.14 106.26 0.66 12
2 04/13/2024 07:56:47 81.07, 99.48 73.76 04/13/2024 07:55:45 81.07, 99.59 73.75 1.98 62
3 04/16/2024 01:49:54 81.02,-169.98 72.65 04/16/2024 01:51:06 81.02,-169.95 72.68 0.62 72
4 04/16/2024 02:40:32 -81.06, -1.56 107.23 04/16/2024 02:40:31 -81.06, -1.65 107.23 1.47 1
5 04/16/2024 03:30:27 81.30,-176.45 74.96 04/16/2024 03:29:14 81.79,-176.93 75.12 54.88 73
6 04/18/2024 21:24:20 81.02,-103.50 71.70 04/18/2024 21:25:18 81.03,-103.32 71.75 3.25 58
7 04/18/2024 22:14:59 -81.05, 64.53 108.23 04/18/2024 22:14:44 -81.05, 64.65 108.22 2.15 15
8 04/21/2024 16:58:45 81.04, -36.74 70.81 04/21/2024 16:59:30 81.03, -36.89 70.80 2.72 45
9 04/21/2024 17:49:24 -81.06, 131.27 109.12 04/21/2024 17:48:56 -81.06, 131.10 109.16 3.01 28
10 04/24/2024 12:33:11 81.03, 29.56 69.88 04/24/2024 12:33:41 81.04, 29.70 69.91 2.60 30



Historial Predications of SNOs between METOP-C and LANDSAT-8
